Regional Weather Roundup
Issued by NWS

Home | Current Version | Previous Version | Text Only | Print | Product List | Glossary On
Versions: 1 2 3 4 5 6 7 8 9 10 11 12 13 14 15 16 17 18 19 20 21 22 23 24 25 26 27 28 29 30 31 32 33 34 35 36 37 38 39 40 41 42 43 44 45 46 47 48 49 50
000
ASUS43 KLMK 201910
RWRKY
KENTUCKY REGIONAL WEATHER ROUNDUP
NATIONAL WEATHER SERVICE LOUISVILLE KY
300 PM EDT THU JUL 20 2017

NOTE "FAIR" INDICATES FEW OR NO CLOUDS BELOW 12,000 FEET
WITH NO SIGNIFICANT WEATHER AND/OR OBSTRUCTIONS TO VISIBILITY.

KYZ001>023-026-027-061>063-070>075-202000-
WESTERN AND SOUTH CENTRAL KENTUCKY

CITY           SKY/WX    TMP DP  RH WIND       PRES   REMARKS
PADUCAH        MOSUNNY   93  72  50 CALM      30.07S HX 101
HENDERSON      MOSUNNY   92  74  55 SW7       30.06F HX 101
OWENSBORO      MOSUNNY   92  76  59 W7        30.07F HX 104
HOPKINSVILLE   MOSUNNY   90  75  59 NW5       30.09F HX 100
BOWLING GREEN  CLOUDY    92  70  48 NW5       30.10S HX  97
GLASGOW        PTSUNNY   91  71  50 W6        30.11S HX  98
$$

KYZ024-025-028>034-038-045-046-053-202000-
NORTH CENTRAL KENTUCKY

CITY           SKY/WX    TMP DP  RH WIND       PRES   REMARKS
LOUISVILLE/SDF CLOUDY    94  73  50 SW14      30.03F HX 103
LOUISVILLE/LOU CLOUDY    93  74  53 S10       30.04F HX 103
FORT KNOX      PTSUNNY   89  75  63 W7        30.07F HX  98
$$

KYZ035>037-039>044-047>052-055>060-089>105-202000-
NORTHEAST KENTUCKY

CITY           SKY/WX    TMP DP  RH WIND       PRES   REMARKS
LEXINGTON      CLOUDY    90  72  55 VRB3      30.10F HX  97
COVINGTON      CLOUDY    86  77  74 SW9       30.04F HX  97
FRANKFORT      CLOUDY    89  72  56 CALM      30.07F HX  96
$$

KYZ054-064>069-076>088-106>120-202000-
SOUTHEAST KENTUCKY

CITY           SKY/WX    TMP DP  RH WIND       PRES   REMARKS
JACKSON        MOSUNNY   87  68  52 CALM      30.13F HX  90
LONDON         CLOUDY    90  67  46 N7        30.13F HX  93
SOMERSET       CLOUDY    88  70  55 N9        30.13S HX  92
MIDDLESBORO    MOSUNNY   89  68  50 CALM      30.13F HX  92
MONTICELLO     PTCLDY    88  74  63 N15       30.14F HX  96
$$




USA.gov is the U.S. government's official web portal to all federal, state and local government web resources and services.